Location: *
(55.6049°S, 142.1985°W)
Time: 00:16:22
(UTC+00:00)

Cosmos 407 Rocket - Pass Details

Date: 12 May 2021
Orbit: 743 x 787 km, 74.0° (Epoch: 18 June)

Event Time Altitude Azimuth Distance (km) Brightness Sun altitude
Exits shadow 15:05:15 - 322° (NW) 2,388 5.8 -17.8°
Reaches altitude 10° 15:05:24 10° 321° (NW) 2,330 5.7 -17.8°
Maximum altitude 15:10:41 67° 238° (WSW) 844 3.5 -17.0°
Drops below altitude 10° 15:15:57 10° 155° (SSE) 2,324 6.2 -16.3°
Sets 15:18:21 0° 152° (SSE) 3,249 7.0 -16.0°
